This demonstration page uses our WeatherBlox Daily Observations layout. Learn more.

Hourly Observations for February 3, 2019

Temp ( °F °C ) Dew Point ( °F °C ) Humidity (%) Winds ( mph kmh ) Pressure ( in mb ) Visibility ( mi km ) Precip ( " mm )
12:15 am 00:15 Clear 40 4.6 34 1.2 79 79 S 5 7 29.73 1007 10 16.0934 0 0
12:35 am 00:35 Clear 34 1 32 -0.1 92 92 S 7 11 29.75 1008 10 16.0934 0 0
12:55 am 00:55 Clear 33 0.5 32 -0.1 96 96 S 7 11 29.76 1008 10 16.0934 0 0
1:15 am 01:15 Clear 33 0.7 31 -0.5 92 92 S 6 9 29.76 1008 10 16.0934 0 0
1:35 am 01:35 Clear 35 1.6 32 0 89 89 S 5 7 29.75 1007 10 16.0934 0 0
1:55 am 01:55 Clear 32 0.2 31 -0.4 96 96 Calm 29.76 1008 10 16.0934 0 0
2:15 am 02:15 Clear 35 1.9 33 0.6 91 91 Calm 29.75 1007 10 16.0934 0 0
2:35 am 02:35 Clear 31 -0.8 29 -1.7 94 94 Calm 29.76 1008 10 16.0934 0 0
2:55 am 02:55 Clear 35 1.6 34 1.1 97 97 SSW 3 6 29.73 1007 10 16.0934 0 0
3:15 am 03:15 Clear 30 -1.2 29 -1.8 96 96 Calm 29.75 1007 10 16.0934 0 0
3:35 am 03:35 Clear 32 0.1 32 0 99 99 S 5 7 29.73 1007 10 16.0934 0 0
3:55 am 03:55 Clear 33 0.4 32 0 97 97 S 5 7 29.72 1006 10 16.0934 0 0
4:15 am 04:15 Clear 32 -0.2 31 -0.6 97 97 SSE 3 6 29.73 1007 10 16.0934 0 0
4:35 am 04:35 Clear 32 0.2 32 0.2 100 100 S 6 9 29.72 1006 7 11.26538 0 0
4:55 am 04:55 Clear 33 0.3 33 0.3 100 100 Calm 29.71 1006 7 11.26538 0 0
5:15 am 05:15 Cloudy with Fog 32 0.2 32 0.2 100 100 SSE 5 7 29.7 1006 0.25 0.402335 0 0
5:35 am 05:35 Cloudy with Fog 33 0.7 33 0.7 100 100 S 5 7 29.7 1006 0.25 0.402335 0 0
5:55 am 05:55 Cloudy with Fog 34 1 34 1 100 100 S 5 7 29.68 1005 0.25 0.402335 0 0
6:15 am 06:15 Cloudy with Fog 34 0.9 34 0.9 100 100 S 5 7 29.69 1005 0.25 0.402335 0 0
6:35 am 06:35 Cloudy with Fog 34 1.1 34 1.1 100 100 S 5 7 29.68 1005 5 8.0467 0 0
6:55 am 06:55 Cloudy with Fog 35 1.4 35 1.4 100 100 S 3 6 29.67 1005 5 8.0467 0 0
7:15 am 07:15 Cloudy with Fog 35 1.8 35 1.8 100 100 S 5 7 29.68 1005 5 8.0467 0 0
7:35 am 07:35 Cloudy with Fog 36 2.1 36 2.1 100 100 S 5 7 29.67 1005 5 8.0467 0 0
7:55 am 07:55 Cloudy with Fog 36 2.2 36 2.2 100 100 SSE 3 6 29.67 1005 5 8.0467 0 0
8:15 am 08:15 Cloudy with Fog 36 2.2 36 2.2 100 100 Calm 29.67 1005 5 8.0467 0 0
8:35 am 08:35 Cloudy with Fog 36 2.3 36 2.3 100 100 Calm 29.67 1005 5 8.0467 0 0
8:55 am 08:55 Cloudy with Fog 37 2.7 37 2.7 100 100 SE 3 6 29.66 1004 5 8.0467 0 0
9:15 am 09:15 Cloudy with Fog 38 3.5 38 3.5 100 100 SSE 5 7 29.65 1004 5 8.0467 0 0
9:35 am 09:35 Cloudy with Fog 40 4.3 40 4.3 100 100 S 5 7 29.66 1005 5 8.0467 0 0
9:55 am 09:55 Cloudy with Fog 40 4.7 40 4.7 100 100 S 5 7 29.65 1004 5 8.0467 0 0
10:15 am 10:15 Cloudy with Fog 41 5 41 5 100 100 Calm 29.65 1004 5 8.0467 0 0
10:35 am 10:35 Cloudy with Fog 42 5.3 42 5.3 100 100 SSE 8 13 29.62 1003 5 8.0467 0 0
10:55 am 10:55 Cloudy with Fog 42 5.7 42 5.7 100 100 S 10 17 29.61 1003 5 8.0467 0 0
11:15 am 11:15 Cloudy with Fog 43 5.9 43 5.9 100 100 S 10 17 29.6 1002 0.25 0.402335 0 0
11:35 am 11:35 Cloudy with Fog 43 6.1 43 6.1 100 100 S 10 17 29.6 1002 0.25 0.402335 0 0
11:55 am 11:55 Cloudy with Fog 43 6.1 43 6.1 100 100 S 10 17 29.59 1002 0.5 0.80467 0 0
12:15 pm 12:15 Cloudy with Mist and Fog 43 6.3 43 6.3 100 100 S 12 19 29.57 1001 0.75 1.207005 0 0
12:35 pm 12:35 Cloudy with Mist and Fog 44 6.7 44 6.7 100 100 SSE 12 19 29.54 1000 1.25 2.011675 0 0
12:55 pm 12:55 Cloudy with Mist and Fog 44 6.6 44 6.6 100 100 SSE 10 17 29.53 1000 4 6.43736 0 0
1:15 pm 13:15 Cloudy 44 6.7 44 6.7 100 100 SSE 10 17 29.52 1000 7 11.26538 0 0
1:35 pm 13:35 Cloudy 44 6.9 44 6.9 100 100 S 12 19 29.52 1000 10 16.0934 0 0
1:55 pm 13:55 Cloudy 45 7.3 45 7.3 100 100 SSE 9 15 29.5 999 10 16.0934 0 0
2:15 pm 14:15 Cloudy 46 7.8 46 7.8 100 100 SSE 13 20 29.49 999 10 16.0934 0 0
2:35 pm 14:35 Cloudy 47 8.1 47 8.1 100 100 SSE 9 15 29.48 998 10 16.0934 0 0
2:55 pm 14:55 Cloudy 47 8.5 47 8.5 100 100 SSE 9 15 29.48 998 10 16.0934 0 0
3:15 pm 15:15 Partly Cloudy 49 9.4 49 9.4 100 100 S 12 19 29.47 998 10 16.0934 0 0
3:35 pm 15:35 Sunny 51 10.8 47 8.5 86 86 SSE 10 17 29.45 997 10 16.0934 0 0
3:55 pm 15:55 Sunny 52 11.2 47 8.1 81 81 S 7 11 29.44 997 10 16.0934 0 0
4:15 pm 16:15 Sunny 53 11.5 46 8 79 79 S 6 9 29.44 997 10 16.0934 0 0
4:35 pm 16:35 Sunny 53 11.8 46 8 78 78 SSE 7 11 29.43 997 10 16.0934 0 0
4:55 pm 16:55 Sunny 53 11.6 45 7.4 76 76 SSE 8 13 29.43 997 10 16.0934 0 0
5:15 pm 17:15 Sunny 51 10.4 44 6.5 77 77 SSE 5 7 29.45 997 10 16.0934 0 0
5:35 pm 17:35 Sunny 48 8.9 42 5.7 81 81 W 3 6 29.47 998 10 16.0934 0 0
6:15 pm 18:15 Clear 42 5.3 39 3.8 90 90 N 5 7 29.51 999 10 16.0934 0 0
6:35 pm 18:35 Clear 40 4.2 38 3.6 96 96 NNE 8 13 29.51 999 10 16.0934 0 0
6:55 pm 18:55 Clear 38 3.4 38 3.1 98 98 NNE 7 11 29.53 1000 7 11.26538 0 0
7:15 pm 19:15 Clear 39 3.9 39 3.9 100 100 NNE 5 7 29.52 1000 7 11.26538 0 0
7:35 pm 19:35 Clear 40 4.5 40 4.5 100 100 N 7 11 29.52 1000 10 16.0934 0 0
7:55 pm 19:55 Clear 40 4.6 40 4.6 100 100 NNW 18 30 29.57 1001 7 11.26538 0 0
8:15 pm 20:15 Mostly Cloudy 42 5.5 42 5.5 100 100 N 17 28 29.58 1002 7 11.26538 0 0
8:35 pm 20:35 Cloudy with Mist and Fog 42 5.5 42 5.5 100 100 N 20 31 29.6 1002 5 8.0467 0 0
8:55 pm 20:55 Cloudy with Mist and Fog 35 1.8 35 1.5 98 98 N 23 37 29.67 1005 3 4.82802 0 0
9:15 pm 21:15 Cloudy with Mist and Fog 31 -0.5 31 -0.5 100 100 N 22 35 29.66 1004 2.5 4.02335 0 0
9:35 pm 21:35 Cloudy with Mist and Fog 30 -1.2 30 -1.2 100 100 N 21 33 29.67 1005 1.25 2.011675 0 0
9:55 pm 21:55 Cloudy with Mist and Fog 29 -1.5 29 -1.5 100 100 N 12 19 29.69 1005 1.25 2.011675 0 0
10:15 pm 22:15 Cloudy with Mist and Fog 28 -2 28 -2 100 100 N 17 28 29.71 1006 1.25 2.011675 0 0
10:35 pm 22:35 Cloudy with Mist and Fog 28 -2.2 28 -2.2 100 100 N 17 28 29.72 1007 2 3.21868 0 0
10:55 pm 22:55 Cloudy with Mist and Fog 28 -2.5 28 -2.5 100 100 N 18 30 29.74 1007 2.5 4.02335 0 0
11:15 pm 23:15 Cloudy with Mist and Fog 27 -2.7 27 -2.7 100 100 N 16 26 29.75 1007 1.75 2.816345 0 0
11:35 pm 23:35 Cloudy with Mist and Fog 27 -3 27 -3 100 100 N 20 31 29.76 1008 0.75 1.207005 0 0
11:55 pm 23:55 Cloudy with Mist and Fog 26 -3.2 26 -3.2 100 100 N 20 31 29.77 1008 1.25 2.011675 0 0

Powered by AerisWeather